Location: Casteau
(50.5142°N, 4.0161°E)
Time: 00:19:54
(UTC+00:00)

S-56A Canister/Altair - Pass Details

Date: 09 August 2021
Orbit: 632 x 2500 km, 38.9° (Epoch: 19 September)

Event Time Altitude Azimuth Distance (km) Brightness Sun altitude
Rises 14:49:10 0° 258° (WSW) 5,194 12.6 39.9°
Reaches altitude 10° 14:52:21 10° 254° (WSW) 4,415 12.6 39.5°
Maximum altitude 15:04:26 51° 184° (S) 2,836 11.2 37.7°
Drops below altitude 10° 15:18:40 10° 116° (ESE) 5,143 11.5 35.6°
Sets 15:22:44 0° 111° (ESE) 6,084 11.7 35.0°
